IRIDIUM 38 [-] (25043 NORAD) Tracking and Keplerian Element Data

This shows tracking and keplerian element data for the satellite.

Feedback or suggestion? Click here.




ElementValue
Catalog25043
NameIRIDIUM 38 [-]
Epoch Orbit8322
Epoch Day198.64733336
Epoch Year2018
RAAN213.3304
Inclination86.3964
Eccentricity0.0003822
Argument of Perigee82.8277
Mean Anonmoly277.3354
Mean Motion14.3609961
Decay Rate8.2E-07
L11 25043U 97069E 18198.64733336 .00000082 00000-0 21429-4 0 9999
L22 25043 86.3964 213.3304 0003822 82.8277 277.3354 14.36099610 83222

Live tracking and technical data element details for IRIDIUM 38 [-] (NORAD 25043). IRIDIUM 38 [-] can be tracked NOW for your location showing map with azimuth and elevation plus other details from your city location.

Track the satellite on the map from your city or location and see movement details for azimuth, elevation, latitude, longitude, range, height, and movement on the map or in text.







IsCatalogInMostPopularTable: catalog: 25043, numindb: 33
Update: records affected: 1



GetName: 25043 IRIDIUM 38 [-]

Hit Count: updated at: Fri, 20 Jul 2018 07:04:42 GMT